Weather History for Savannah, GA

Change the Weather History Date:

Saturday, October 29, 2011

  Actual Average Record
Temperature  
Mean Temperature 56 °F 64 °F  
Max Temperature 67 °F 75 °F 87 °F (1996)
Min Temperature 44 °F 53 °F 30 °F (1976)
Degree Days  
Heating Degree Days 9 3  
Month to date heating degree days 63 49  
Since 1 July heating degree days 63 51  
Cooling Degree Days 0 2  
Month to date cooling degree days 81 143  
Year to date cooling degree days 2796 2409  
Growing Degree Days 7 (Base 50)    
Moisture  
Dew Point 53 °F    
Average Humidity 72    
Maximum Humidity 93    
Minimum Humidity 51    
Precipitation  
Precipitation 0.07 in 0.08 in 3.57 in (1959)
Month to date precipitation 2.20 3.53  
Year to date precipitation 32.98 42.48  
Snow  
Snow 0.00 in 0.00 in - ()
Month to date snowfall 0.0  
Since 1 July snowfall 0.0 0.0  
Since 1 September snowfall 0.0 0.0  
Snow Depth 0.00 in    
Sea Level Pressure  
Sea Level Pressure 29.95 in    
Wind  
Wind Speed 10 mph (North)    
Max Wind Speed 22 mph    
Max Gust Speed 26 mph    
Visibility 7 miles    
Events Rain    
T = Trace of Precipitation, MM = Missing Value Source: NWS Daily Summary

Daily Weather History Graph

Daily Weather History Graph

Search for Another Location

Airport:

Trip Planner

Search our weather history database for the weather conditions in past years. The results will help you decide how hot, cold, wet, or windy it might be!

Date:

Astronomy

Oct. 29, 2011 Rise Set
Actual Time 7:38 AM EDT 6:37 PM EDT
Civil Twilight 7:13 AM EDT 7:02 PM EDT
Nautical Twilight 6:44 AM EDT 7:31 PM EDT
Astronomical Twilight 6:16 AM EDT 8:00 PM EDT
Moon 10:48 AM EDT (10/29) 9:10 PM EDT (10/29)
Length of Visible Light 11h 49m
Length of Day
10h 58m
Waxing Crescent, 11% of the Moon is Illuminated
Oct 29
Waxing Crescent
Nov 2
First Quarter
Nov 10
Full
Nov 18
Last Quarter
Nov 25
New

Hourly Weather History & Observations

Time (EDT) Temp. Windchill Dew Point Humidity Pressure Visibility Wind Dir Wind Speed Gust Speed Precip Events Conditions
12:28 AM 68.0 °F - 62.6 °F 83% 29.91 in 10.0 mi East 8.1 mph - N/A   Overcast
12:53 AM 68.0 °F - 63.0 °F 84% 29.91 in 10.0 mi ENE 6.9 mph - N/A   Overcast
1:53 AM 66.0 °F - 63.0 °F 90% 29.88 in 8.0 mi East 4.6 mph - N/A   Mostly Cloudy
2:53 AM 66.9 °F - 64.0 °F 90% 29.88 in 8.0 mi East 6.9 mph - N/A   Overcast
3:15 AM 66.2 °F - 64.4 °F 94% 29.88 in 8.0 mi East 4.6 mph - N/A   Overcast
3:44 AM 66.2 °F - 64.4 °F 94% 29.87 in 8.0 mi ENE 4.6 mph - N/A   Overcast
3:53 AM 66.9 °F - 64.0 °F 90% 29.87 in 8.0 mi ENE 5.8 mph - N/A   Overcast
4:53 AM 66.0 °F - 63.0 °F 90% 29.86 in 8.0 mi Calm Calm - 0.00 in Rain Light Rain
5:53 AM 64.0 °F - 62.1 °F 93% 29.87 in 7.0 mi North 3.5 mph - 0.06 in Rain Light Rain
6:50 AM 62.6 °F - 60.8 °F 94% 29.87 in 3.0 mi North 4.6 mph - 0.01 in   Overcast
6:53 AM 63.0 °F - 61.0 °F 93% 29.88 in 3.0 mi NNE 3.5 mph - 0.01 in   Overcast
7:09 AM 62.6 °F - 60.8 °F 94% 29.88 in 2.5 mi Calm Calm - 0.00 in Rain Light Rain
7:53 AM 60.1 °F - 57.0 °F 90% 29.90 in 2.5 mi North 15.0 mph - 0.00 in   Overcast
7:57 AM 60.8 °F - 57.2 °F 88% 29.90 in 2.0 mi North 15.0 mph - N/A   Overcast
8:25 AM 57.2 °F - 55.4 °F 94% 29.91 in 2.0 mi NNW 12.7 mph - N/A   Overcast
8:53 AM 57.0 °F - 55.0 °F 93% 29.92 in 2.0 mi NNW 16.1 mph - N/A   Overcast
9:43 AM 55.4 °F - 53.6 °F 94% 29.95 in 2.5 mi NNW 18.4 mph - N/A   Overcast
9:47 AM 55.4 °F - 51.8 °F 88% 29.96 in 3.0 mi NNW 17.3 mph 25.3 mph N/A   Overcast
9:53 AM 55.0 °F - 52.0 °F 89% 29.95 in 3.0 mi NNW 21.9 mph 25.3 mph N/A   Overcast
10:53 AM 54.0 °F - 50.0 °F 86% 29.96 in 5.0 mi North 11.5 mph - N/A   Overcast
11:53 AM 57.0 °F - 48.0 °F 72% 29.96 in 7.0 mi NNW 16.1 mph 21.9 mph N/A   Mostly Cloudy
11:59 AM 59.0 °F - 48.2 °F 67% 29.96 in 10.0 mi NNW 16.1 mph 26.5 mph N/A   Mostly Cloudy
12:53 PM 62.1 °F - 46.9 °F 58% 29.96 in 10.0 mi NNW 16.1 mph 26.5 mph N/A   Mostly Cloudy
1:00 PM 60.8 °F - 46.4 °F 59% 29.95 in 10.0 mi NNW 16.1 mph 26.5 mph N/A   Scattered Clouds
1:53 PM 63.0 °F - 46.0 °F 54% 29.94 in 10.0 mi NW 19.6 mph - N/A   Partly Cloudy
2:53 PM 63.0 °F - 44.1 °F 50% 29.94 in 10.0 mi NNW 18.4 mph 24.2 mph N/A   Partly Cloudy
3:53 PM 61.0 °F - 43.0 °F 52% 29.96 in 10.0 mi NW 16.1 mph 25.3 mph N/A   Partly Cloudy
4:53 PM 61.0 °F - 42.1 °F 50% 29.97 in 10.0 mi NNW 18.4 mph - N/A   Partly Cloudy
5:53 PM 59.0 °F - 43.0 °F 55% 29.99 in 10.0 mi NW 11.5 mph - N/A   Partly Cloudy
6:53 PM 55.9 °F - 43.0 °F 62% 30.01 in 10.0 mi NW 8.1 mph - N/A   Partly Cloudy
7:53 PM 53.1 °F - 44.1 °F 71% 30.05 in 10.0 mi NW 5.8 mph - N/A   Clear
8:53 PM 51.1 °F - 43.0 °F 74% 30.07 in 10.0 mi North 3.5 mph - N/A   Clear
9:53 PM 48.0 °F - 43.0 °F 83% 30.10 in 10.0 mi North 3.5 mph - N/A   Clear
10:53 PM 46.0 °F 43.1 °F 39.9 °F 79% 30.14 in 10.0 mi North 5.8 mph - N/A   Clear
11:53 PM 46.0 °F 42.5 °F 37.9 °F 73% 30.15 in 10.0 mi North 6.9 mph - N/A   Clear